THOR ABLESTAR DEB, 1608

Orbit data source: Space-Track

THOR ABLESTAR DEB, 1608 is space debris in LEO originally from a launch on Sun, 13 Dec 1964 UTC launched from the Air Force Western Test Range (AFWTR). Debris objects in space refer to the collection of defunct objects orbiting the Earth. Examples of debris include non-operational satellites, rocket bodies, and fragments generated from explosions, collisions, or faulty payload assembly.

Loading next visibility...
Identifier
1608, 1964-083H
Orbit
LEO
Country
Flag of USUS
Related business
Manufacturer
Unknown
Mission
Spacecraft
Bus & Motor
Unknown
Mass
Unknown
Launch date (UTC)
1964-12-13 (62 years ago)
Launch vehicle
Unknown
Launch site
Air Force Western Test Range (AFWTR)
Object type
Payload
Rocket body
Debris
Shape & HBR
Unknown shape, 0.1 m
Radar Cross Section
Medium (>0.1 m² and <1 m²)

Expand to show TLE details & history
Last TLE update: 2 days ago

TLE from 2 days ago
0 THOR ABLESTAR DEB
1 01608U 64083H   26174.97741707  .00000618  00000-0  52539-3 0  9990
2 01608  89.7626  66.0941 0018999  89.5742 287.3022 13.86224387 75866
Epoch: 2026-06-23T23:27Z
TLE epoch observation values (Epoch: 2026-06-23T23:27:28.834Z)
Latitude
16.65096°
Longitude
162.15335°
Altitude
940.153 km
Speed
7.385 km/s
True Right ascension
04h 24m 39s
True Declination
16° 33' 33"
Sunlit
Object was in daylight at epoch
Visualization orbit readout
Latitude
Unknown
Longitude
Unknown
Altitude
Unknown
Speed
Unknown
Apparent Right ascension
Unknown
Apparent Declination
Unknown
Sunlit
N/A
Visualization observer readout
Local Sidereal Time
23:45:01
Azimuth
Unknown
Elevation
Unknown
Doppler factor
Unknown
Orbital elements
Apogee altitude
952.791 km
Perigee altitude
924.988 km
Semi-major axis
7,317.027 km
Eccentricity
0.0019
Inclination
89.7626°
RAAN
66.0941°
Arg. of periapsis
89.5742°
True anomaly
287.09419°
Mean anomaly
287.3022°
Eccentric anomaly
287.19821°
Mean motion
3.4677 °/min
Orbital period
103.82 mins
BSTAR
0.00052539
Loading maneuver chart data...
Computing Atmospheric mass density...

Documentation

Showing up to 5 results
|